SCP
0 0 0 0 0 0 0 0 0 0 0 0 0 0 0 0 0 0 0 0 0 0 0 0 0 0 0 0 0 0 0 0 0 0 1 1 1 1
0 0 0 0 0 0 0 0 0 0 0 0 0 0 0 0 0 0 0 0 0 0 0 0 0 0 0 0 0 0 0 0 0 0 0 0 1 0
0 0 0 0 0 0 0 0 0 0 0 0 0 0 0 0 0 0 0 0 0 0 0 0 0 0 0 0 0 0 0 0 0 0 0 0 0 0
0 0 0 0 0 0 0 0 0 0 0 0 0 0 0 0 0 0 0 0 0 0 0 0 0 0 0 0 0 0 0 0 0 0 0 0 0 0
0 0 0 0 0 0 0 0 0 0 0 0 0 0 0 0 0 0 0 0 0 0 0 0 0 0 0 0 0 0 0 0 0 0 0 0 0 0
0 0 0 0 0 0 0 0 0 0 0 0 0 0 0 0 0 0 0 0 0 0 0 0 0 0 0 0 0 0 0 0 0 0 0 0 0 0
0 0 0 0 0 0 0 0 0 0 0 0 0 0 0 0 0 0 0 0 0 0 0 0 0 0 0 0 0 0 0 0 0 0 0 0 0 0
0 0 0 0 0 0 0 0 0 0 0 0 0 0 0 0 0 0 0 0 0 0 0 0 0 0 0 0 0 0 0 0 0 0 0 0 0 0
0 0 0 0 0 0 0 0 0 0 0 0 0 0 0 0 0 0 0 0 0 0 0 0 0 0 0 0 0 0 0 0 0 0 0 0 0 0
0 0 0 0 0 0 0 0 0 0 0 0 0 0 0 0 0 0 0 0 0 0 0 0 0 0 0 0 0 0 0 0 0 0 0 0 0 0
0 0 0 0 0 0 0 0 0 0 0 0 0 0 0 0 0 0 0 0 0 0 0 0 0 0 0 0 0 0 0 0 0 0 0 0 0 0
0 0 0 0 0 0 0 0 0 0 0 0 0 0 0 0 0 0 0 0 0 0 0 0 0 0 0 0 0 0 0 0 0 0 0 0 0 0
0 0 0 0 0 0 0 0 0 0 0 0 0 0 0 0 0 0 0 0 0 0 0 0 0 0 0 0 0 0 0 0 0 0 0 0 0 0
0 0 0 0 0 0 0 0 0 0 0 0 0 0 0 0 0 0 0 0 0 0 0 0 0 0 0 0 0 0 0 0 0 0 0 0 0 0
0 0 0 0 0 0 0 0 0 0 0 0 0 0 0 0 0 0 0 0 0 0 0 0 0 0 0 0 0 0 0 0 0 0 0 0 0 0
0 0 0 0 0 0 0 0 0 0 0 0 0 0 0 0 0 0 0 0 0 0 0 0 0 0 0 0 0 0 0 0 0 0 0 0 0 0
0 0 0 0 0 0 0 0 0 0 0 0 0 0 0 0 0 0 0 0 0 0 0 0 0 0 0 0 0 0 0 0 0 0 0 0 0 0
0 0 0 0 0 0 0 0 0 0 0 0 0 0 0 0 0 0 0 0 0 0 0 0 0 0 0 0 0 0 0 0 0 0 0 0 0 0
0 0 0 0 0 0 0 0 0 0 0 0 0 0 0 0 0 0 0 0 0 0 0 0 0 0 0 0 0 0 0 0 0 0 0 0 0 0
0 0 0 0 0 0 0 0 0 0 0 0 0 0 0 0 0 0 0 0 0 0 0 0 0 0 0 0 0 0 0 0 0 0 0 0 0 0
0 0 0 0 0 0 0 0 0 0 0 0 0 0 0 0 0 0 0 0 0 0 0 0 0 0 0 0 0 0 0 0 0 0 0 0 0 0
0 0 0 0 0 0 0 0 0 0 0 0 0 0 0 0 0 0 0 0 0 0 0 0 0 0 0 0 0 0 0 0 0 0 0 0 0 0
0 0 0 0 0 0 0 0 0 0 0 0 0 0 0 0 0 0 0 0 0 0 0 0 0 0 0 0 0 0 0 0 0 0 0 0 0 0
Wind_Speed
12 11 7 5 5 5 5 7 9 8 8 7 5 7 6 5 9 5 5 8 8 9 9 10 11 12 13 15 17 18 19 20 22 23 24 26 27 28
9 10 9 6 5 5 5 5 5 7 6 5 4 5 7 6 9 6 5 9 10 10 11 11 12 13 14 15 17 18 19 20 22 23 24 26 27 29
10 11 11 9 8 6 5 5 4 5 5 3 2 4 6 6 5 4 5 5 5 11 12 13 13 13 14 16 17 18 19 20 21 23 24 26 27 29
14 13 13 10 10 8 7 6 5 5 6 6 3 4 5 6 5 5 4 4 4 10 13 13 14 14 15 15 16 17 18 19 21 22 24 26 28 29
15 15 15 14 13 9 9 8 6 4 5 6 4 3 3 3 3 3 4 4 5 8 12 13 13 14 14 15 16 17 18 19 20 22 24 26 27 28
12 13 14 15 15 14 11 10 8 7 6 6 4 3 3 3 3 3 3 4 4 4 8 9 11 13 14 15 16 17 17 18 20 22 23 25 26 28
10 11 12 14 15 14 11 12 11 8 7 5 4 3 3 4 4 4 4 3 4 4 4 4 4 4 5 10 13 16 17 18 20 22 23 24 26 27
11 9 9 11 16 19 19 18 16 12 9 7 5 5 5 5 4 4 4 3 3 2 2 3 3 4 4 4 11 17 17 19 20 21 22 24 26 27
10 10 9 9 12 11 15 17 14 14 14 9 7 7 6 6 6 6 5 5 5 2 1 5 3 5 4 6 15 16 17 19 19 21 22 24 26 26
10 11 12 12 12 14 12 11 9 8 10 7 6 6 5 5 5 5 5 4 4 3 3 5 3 4 4 4 12 15 16 17 19 20 22 24 25 26
8 9 12 13 19 21 14 12 10 7 10 12 11 10 11 11 8 4 3 3 5 4 4 4 2 2 3 4 6 11 13 16 18 20 22 24 25 24
6 8 11 15 20 22 13 11 10 8 7 7 9 10 9 9 12 7 6 5 4 3 2 2 1 1 4 2 1 2 5 11 17 20 21 23 24 15
6 6 8 18 21 22 16 10 11 9 8 7 6 5 5 5 6 6 6 5 5 4 2 2 2 1 3 4 3 2 3 4 8 11 15 20 22 18
6 6 8 18 19 20 15 13 15 10 5 6 6 6 6 6 5 6 6 4 4 3 2 3 2 2 2 3 4 3 3 5 6 7 7 15 17 20
5 10 12 16 17 14 16 15 10 6 6 6 6 6 5 5 4 4 3 3 2 1 2 2 2 2 2 3 4 4 5 5 5 5 7 9 9 10
5 7 12 13 11 8 6 7 5 5 5 5 4 3 3 4 4 4 3 3 2 1 2 3 3 3 3 4 5 6 5 5 6 7 8 8 9 9
4 3 3 3 4 3 3 3 3 4 4 3 4 3 4 4 3 3 3 3 3 2 2 2 2 2 3 4 4 6 6 6 7 7 8 9 9 9
4 3 3 3 4 4 4 3 3 3 3 3 3 4 4 4 4 3 3 3 3 3 2 2 1 1 2 4 8 6 5 5 6 7 7 8 10 9
2 2 2 2 3 3 3 3 3 2 2 3 3 3 4 4 4 4 3 3 3 3 2 2 2 2 1 4 6 5 3 4 5 6 6 7 10 10
1 1 1 1 2 2 2 2 2 2 2 3 3 3 3 3 3 4 4 4 3 3 2 2 3 3 4 3 3 5 8 7 6 7 8 7 8 12
2 2 2 1 1 1 2 2 3 3 3 3 3 3 3 3 3 3 3 4 3 3 3 3 3 2 1 0 3 5 5 9 12 9 9 8 9 7
3 2 2 2 2 1 1 2 2 2 3 2 3 3 3 3 3 4 4 3 3 3 3 2 1 1 2 3 5 6 6 7 10 16 15 12 8 6
2 2 2 2 1 1 1 1 2 2 2 3 3 3 3 3 3 3 3 3 3 3 2 2 1 2 3 4 5 6 8 8 7 7 7 12 15 16
Wind_Direction
208 203 198 195 196 191 162 155 152 165 194 193 181 185 177 173 192 185 201 232 246 264 279 288 296 302 307 311 314 316 318 321 322 323 323 322 321 320
204 200 197 186 189 189 175 168 152 150 169 180 174 166 168 176 193 187 208 234 247 261 271 280 287 295 300 305 309 312 315 319 321 321 322 321 320 320
201 198 198 183 183 183 173 166 156 138 138 149 132 143 158 171 185 194 211 224 241 257 267 273 280 288 294 300 304 308 312 316 318 319 320 320 319 319
203 198 195 186 184 180 176 173 161 144 135 142 140 145 166 176 185 201 214 221 226 254 266 272 278 285 291 297 301 306 310 312 315 317 317 318 319 319
204 199 193 184 185 179 174 169 153 135 122 135 142 141 145 163 181 212 225 231 235 253 264 269 275 283 290 294 300 305 308 309 312 314 316 317 318 318
205 200 192 189 185 176 171 164 149 138 128 130 131 141 151 158 167 210 238 233 241 241 252 261 271 279 285 293 300 304 305 307 310 313 316 317 318 318
203 199 193 187 181 176 170 164 155 148 143 138 146 146 167 174 195 195 224 240 248 232 243 252 264 263 274 287 294 297 302 307 311 314 316 317 317 318
198 191 181 174 176 178 176 170 164 157 158 157 162 178 194 196 191 198 211 225 258 230 228 255 243 258 255 250 286 298 305 309 313 315 317 318 318 319
191 178 172 168 163 162 167 167 168 170 165 159 173 191 192 195 193 207 213 220 234 220 261 271 242 259 259 275 292 299 305 311 315 317 318 319 320 320
184 175 167 163 165 159 157 161 165 173 172 173 184 192 193 190 192 201 209 231 255 239 206 263 256 251 264 266 285 294 305 314 317 318 320 320 321 322
173 167 165 166 174 170 166 167 171 186 194 197 202 211 217 219 209 189 195 221 256 244 198 231 262 279 269 257 271 291 310 316 317 319 321 322 323 325
160 163 172 173 180 180 175 173 181 185 183 198 211 223 225 228 226 214 204 218 235 250 189 197 238 325 301 282 253 308 307 309 316 319 320 322 325 326
170 174 186 189 190 191 186 185 192 180 183 190 198 202 204 207 211 209 206 211 222 231 180 159 198 200 243 288 288 279 289 311 317 313 317 321 325 328
178 179 190 197 198 199 197 195 196 188 179 188 199 205 206 207 202 196 196 201 210 218 176 162 196 201 239 278 286 292 305 308 307 308 313 319 322 324
177 185 191 200 204 205 207 203 197 193 194 202 209 211 202 187 168 164 166 165 172 188 188 187 199 220 222 253 281 295 311 306 301 310 315 316 318 320
178 189 197 203 202 194 197 204 198 196 200 208 205 190 164 159 163 161 167 164 178 234 213 193 195 211 238 252 269 284 292 294 307 310 313 314 313 312
150 151 166 171 183 181 180 183 183 185 198 200 189 179 170 165 165 153 150 154 179 200 209 197 194 217 239 250 265 268 279 285 293 307 315 312 309 310
152 152 163 173 180 181 180 179 179 186 188 185 182 177 173 171 168 158 157 172 194 202 199 183 164 357 334 287 247 255 265 277 294 306 307 305 307 310
154 151 160 169 175 175 178 181 184 177 167 169 172 168 163 164 165 168 171 175 192 197 195 178 171 170 242 281 290 275 287 297 302 298 293 294 302 308
99 128 139 145 155 162 167 167 159 151 152 158 157 156 158 162 169 176 177 178 186 187 197 208 208 202 210 235 264 288 299 293 289 294 300 296 290 299
62 67 75 93 112 133 144 150 153 157 157 157 160 161 161 163 173 177 175 175 174 183 207 224 219 182 148 39 294 282 275 292 302 301 304 303 305 300
58 60 56 62 75 93 114 129 137 146 155 161 165 163 163 168 175 176 176 177 189 199 210 218 179 156 180 224 260 277 290 299 305 308 306 303 304 303
53 63 68 66 62 71 99 136 155 165 168 169 166 165 164 169 174 176 180 181 182 192 196 214 231 228 233 240 260 276 285 296 303 305 301 305 310 310